Year,Month,Day,Hour,Minute,Value (Times are PST for temperature in C)
2013,04,22,00,00,3.50
2013,04,22,00,01,3.50
2013,04,22,00,02,3.40
2013,04,22,00,03,3.40
2013,04,22,00,04,3.40
2013,04,22,00,05,3.40
2013,04,22,00,06,3.40
2013,04,22,00,07,3.40
2013,04,22,00,08,3.40
2013,04,22,00,09,3.40
2013,04,22,00,10,3.40
2013,04,22,00,11,3.40
2013,04,22,00,12,3.40
2013,04,22,00,13,3.40
2013,04,22,00,14,3.40
2013,04,22,00,15,3.40
2013,04,22,00,16,3.40
2013,04,22,00,17,3.40
2013,04,22,00,18,3.40
2013,04,22,00,19,3.40
2013,04,22,00,20,3.40
2013,04,22,00,21,3.40
2013,04,22,00,22,3.40
2013,04,22,00,23,3.40
2013,04,22,00,24,3.40
2013,04,22,00,25,3.30
2013,04,22,00,26,3.30
2013,04,22,00,27,3.30
2013,04,22,00,28,3.30
2013,04,22,00,29,3.30
2013,04,22,00,30,3.30
2013,04,22,00,31,3.30
2013,04,22,00,32,3.30
2013,04,22,00,33,3.30
2013,04,22,00,34,3.30
2013,04,22,00,35,3.30
2013,04,22,00,36,3.30
2013,04,22,00,37,3.30
2013,04,22,00,38,3.30
2013,04,22,00,39,3.30
2013,04,22,00,40,3.30
2013,04,22,00,41,3.30
2013,04,22,00,42,3.30
2013,04,22,00,43,3.30
2013,04,22,00,44,3.20
2013,04,22,00,45,3.20
2013,04,22,00,46,3.20
2013,04,22,00,47,3.20
2013,04,22,00,48,3.20
2013,04,22,00,49,3.20
2013,04,22,00,50,3.20
2013,04,22,00,51,3.10
2013,04,22,00,52,3.10
2013,04,22,00,53,3.10
2013,04,22,00,54,3.10
2013,04,22,00,55,3.10
2013,04,22,00,56,3.10
2013,04,22,00,57,3.00
2013,04,22,00,58,2.90
2013,04,22,00,59,2.90
2013,04,22,01,00,2.90
2013,04,22,01,01,2.90
2013,04,22,01,02,2.90
2013,04,22,01,03,2.90
2013,04,22,01,04,2.80
2013,04,22,01,05,2.80
2013,04,22,01,06,2.80
2013,04,22,01,07,2.80
2013,04,22,01,08,2.80
2013,04,22,01,09,2.80
2013,04,22,01,10,2.80
2013,04,22,01,11,2.80
2013,04,22,01,12,2.80
2013,04,22,01,13,2.80
2013,04,22,01,14,2.80
2013,04,22,01,15,2.80
2013,04,22,01,16,2.80
2013,04,22,01,17,2.80
2013,04,22,01,18,2.80
2013,04,22,01,19,2.80
2013,04,22,01,20,2.80
2013,04,22,01,21,2.80
2013,04,22,01,22,2.90
2013,04,22,01,23,2.90
2013,04,22,01,24,2.90
2013,04,22,01,25,2.90
2013,04,22,01,26,2.90
2013,04,22,01,27,2.90
2013,04,22,01,28,3.00
2013,04,22,01,29,2.90
2013,04,22,01,30,3.00
2013,04,22,01,31,3.10
2013,04,22,01,32,3.10
2013,04,22,01,33,3.10
2013,04,22,01,34,3.10
2013,04,22,01,35,3.20
2013,04,22,01,36,3.20
2013,04,22,01,37,3.30
2013,04,22,01,38,3.30
2013,04,22,01,39,3.30
2013,04,22,01,40,3.30
2013,04,22,01,41,3.30
2013,04,22,01,42,3.40
2013,04,22,01,43,3.40
2013,04,22,01,44,3.40
2013,04,22,01,45,3.40
2013,04,22,01,46,3.40
2013,04,22,01,47,3.40
2013,04,22,01,48,3.40
2013,04,22,01,49,3.40
2013,04,22,01,50,3.50
2013,04,22,01,51,3.50
2013,04,22,01,52,3.50
2013,04,22,01,53,3.60
2013,04,22,01,54,3.60
2013,04,22,01,55,3.60
2013,04,22,01,56,3.60
2013,04,22,01,57,3.60
2013,04,22,01,58,3.60
2013,04,22,01,59,3.50
2013,04,22,02,00,3.50
2013,04,22,02,01,3.50
2013,04,22,02,02,3.50
2013,04,22,02,03,3.40
2013,04,22,02,04,3.40
2013,04,22,02,05,3.30
2013,04,22,02,06,3.30
2013,04,22,02,07,3.20
2013,04,22,02,08,3.10
2013,04,22,02,09,3.10
2013,04,22,02,10,3.00
2013,04,22,02,11,2.90
2013,04,22,02,12,2.90
2013,04,22,02,13,2.90
2013,04,22,02,14,2.80
2013,04,22,02,15,2.80
2013,04,22,02,16,2.90
2013,04,22,02,17,2.90
2013,04,22,02,18,2.80
2013,04,22,02,19,2.80
2013,04,22,02,20,2.80
2013,04,22,02,21,2.80
2013,04,22,02,22,2.80
2013,04,22,02,23,2.90
2013,04,22,02,24,2.90
2013,04,22,02,25,2.90
2013,04,22,02,26,2.90
2013,04,22,02,27,2.90
2013,04,22,02,28,2.90
2013,04,22,02,29,2.90
2013,04,22,02,30,2.90
2013,04,22,02,31,2.90
2013,04,22,02,32,2.90
2013,04,22,02,33,2.90
2013,04,22,02,34,2.90
2013,04,22,02,35,2.90
2013,04,22,02,36,2.90
2013,04,22,02,37,2.90
2013,04,22,02,38,2.90
2013,04,22,02,39,2.90
2013,04,22,02,40,2.90
2013,04,22,02,41,2.80
2013,04,22,02,42,2.80
2013,04,22,02,43,2.80
2013,04,22,02,44,2.80
2013,04,22,02,45,2.80
2013,04,22,02,46,2.80
2013,04,22,02,47,2.80
2013,04,22,02,48,2.80
2013,04,22,02,49,2.80
2013,04,22,02,50,2.80
2013,04,22,02,51,2.70
2013,04,22,02,52,2.70
2013,04,22,02,53,2.70
2013,04,22,02,54,2.70
2013,04,22,02,55,2.70
2013,04,22,02,56,2.70
2013,04,22,02,57,2.60
2013,04,22,02,58,2.60
2013,04,22,02,59,2.60
2013,04,22,03,00,2.50
2013,04,22,03,01,2.50
2013,04,22,03,02,2.50
2013,04,22,03,03,2.40
2013,04,22,03,04,2.40
2013,04,22,03,05,2.30
2013,04,22,03,06,2.30
2013,04,22,03,07,2.30
2013,04,22,03,08,2.30
2013,04,22,03,09,2.30
2013,04,22,03,10,2.40
2013,04,22,03,11,2.40
2013,04,22,03,12,2.50
2013,04,22,03,13,2.50
2013,04,22,03,14,2.50
2013,04,22,03,15,2.40
2013,04,22,03,16,2.40
2013,04,22,03,17,2.40
2013,04,22,03,18,2.50
2013,04,22,03,19,2.50
2013,04,22,03,20,2.60
2013,04,22,03,21,2.60
2013,04,22,03,22,2.70
2013,04,22,03,23,2.70
2013,04,22,03,24,2.70
2013,04,22,03,25,2.70
2013,04,22,03,26,2.70
2013,04,22,03,27,2.60
2013,04,22,03,28,2.60
2013,04,22,03,29,2.60
2013,04,22,03,30,2.50
2013,04,22,03,31,2.50
2013,04,22,03,32,2.50
2013,04,22,03,33,2.40
2013,04,22,03,34,2.40
2013,04,22,03,35,2.30
2013,04,22,03,36,2.30
2013,04,22,03,37,2.30
2013,04,22,03,38,2.30
2013,04,22,03,39,2.30
2013,04,22,03,40,2.30
2013,04,22,03,41,2.30
2013,04,22,03,42,2.30
2013,04,22,03,43,2.20
2013,04,22,03,44,2.20
2013,04,22,03,45,2.20
2013,04,22,03,46,2.20
2013,04,22,03,47,2.20
2013,04,22,03,48,2.20
2013,04,22,03,49,2.20
2013,04,22,03,50,2.20
2013,04,22,03,51,2.20
2013,04,22,03,52,2.20
2013,04,22,03,53,2.20
2013,04,22,03,54,2.20
2013,04,22,03,55,2.20
2013,04,22,03,56,2.20
2013,04,22,03,57,2.20
2013,04,22,03,58,2.20
2013,04,22,03,59,2.20
2013,04,22,04,00,2.20
2013,04,22,04,01,2.20
2013,04,22,04,02,2.20
2013,04,22,04,03,2.20
2013,04,22,04,04,2.20
2013,04,22,04,05,2.20
2013,04,22,04,06,2.20
2013,04,22,04,07,2.10
2013,04,22,04,08,2.20
2013,04,22,04,09,2.20
2013,04,22,04,10,2.20
2013,04,22,04,11,2.20
2013,04,22,04,12,2.20
2013,04,22,04,13,2.20
2013,04,22,04,14,2.20
2013,04,22,04,15,2.20
2013,04,22,04,16,2.20
2013,04,22,04,17,2.30
2013,04,22,04,18,2.30
2013,04,22,04,19,2.30
2013,04,22,04,20,2.30
2013,04,22,04,21,2.30
2013,04,22,04,22,2.30
2013,04,22,04,23,2.30
2013,04,22,04,24,2.30
2013,04,22,04,25,2.40
2013,04,22,04,26,2.40
2013,04,22,04,27,2.50
2013,04,22,04,28,2.50
2013,04,22,04,29,2.50
2013,04,22,04,30,2.50
2013,04,22,04,31,2.50
2013,04,22,04,32,2.50
2013,04,22,04,33,2.50
2013,04,22,04,34,2.50
2013,04,22,04,35,2.40
2013,04,22,04,36,2.40
2013,04,22,04,37,2.30
2013,04,22,04,38,2.30
2013,04,22,04,39,2.30
2013,04,22,04,40,2.20
2013,04,22,04,41,2.20
2013,04,22,04,42,2.20
2013,04,22,04,43,2.30
2013,04,22,04,44,2.30
2013,04,22,04,45,2.30
2013,04,22,04,46,2.30
2013,04,22,04,47,2.30
2013,04,22,04,48,2.30
2013,04,22,04,49,2.30
2013,04,22,04,50,2.30
2013,04,22,04,51,2.30
2013,04,22,04,52,2.30
2013,04,22,04,53,2.30
2013,04,22,04,54,2.30
2013,04,22,04,55,2.40
2013,04,22,04,56,2.50
2013,04,22,04,57,2.50
2013,04,22,04,58,2.50
2013,04,22,04,59,2.50
2013,04,22,05,00,2.60
2013,04,22,05,01,2.60
2013,04,22,05,02,2.70
2013,04,22,05,03,2.70
2013,04,22,05,04,2.70
2013,04,22,05,05,2.70
2013,04,22,05,06,2.70
2013,04,22,05,07,2.70
2013,04,22,05,08,2.70
2013,04,22,05,09,2.70
2013,04,22,05,10,2.70
2013,04,22,05,11,2.70
2013,04,22,05,12,2.70
2013,04,22,05,13,2.70
2013,04,22,05,14,2.70
2013,04,22,11,44,12.40
2013,04,22,11,45,12.40
2013,04,22,11,46,12.50
2013,04,22,11,47,12.60
2013,04,22,11,48,12.70
2013,04,22,11,49,12.80
2013,04,22,11,50,12.80
2013,04,22,11,51,12.70
2013,04,22,11,52,12.70
2013,04,22,11,53,12.80
2013,04,22,11,54,12.70
2013,04,22,11,55,12.60
2013,04,22,11,56,12.60
2013,04,22,11,57,12.50
2013,04,22,11,58,12.40
2013,04,22,11,59,12.40
2013,04,22,12,00,12.50
2013,04,22,12,01,12.60
2013,04,22,12,02,12.60
2013,04,22,12,03,12.60
2013,04,22,12,04,12.60
2013,04,22,12,05,12.60
2013,04,22,12,06,12.70
2013,04,22,12,07,12.70
2013,04,22,12,08,12.80
2013,04,22,12,09,12.80
2013,04,22,12,10,12.70
2013,04,22,12,11,12.70
2013,04,22,12,12,12.70
2013,04,22,12,13,12.80
2013,04,22,12,14,12.80
2013,04,22,12,15,12.80
2013,04,22,12,16,12.80
2013,04,22,12,17,12.70
2013,04,22,12,18,12.70
2013,04,22,12,19,12.80
2013,04,22,12,20,12.70
2013,04,22,12,21,12.60
2013,04,22,12,22,12.50
2013,04,22,12,23,12.50
2013,04,22,12,24,12.50
2013,04,22,12,25,12.60
2013,04,22,12,26,12.70
2013,04,22,12,27,12.80
2013,04,22,12,28,12.80
2013,04,22,12,29,12.80
2013,04,22,12,30,12.80
2013,04,22,12,31,12.80
2013,04,22,12,32,12.60
2013,04,22,12,33,12.60
2013,04,22,12,34,12.60
2013,04,22,12,35,12.60
2013,04,22,12,36,12.50
2013,04,22,12,37,12.50
2013,04,22,12,38,12.40
2013,04,22,12,39,12.30
2013,04,22,12,40,12.30
2013,04,22,12,41,12.40
2013,04,22,12,42,12.50
2013,04,22,12,43,12.60
2013,04,22,12,44,12.80
2013,04,22,12,45,12.80
2013,04,22,12,46,12.80
2013,04,22,12,47,12.90
2013,04,22,12,48,13.00
2013,04,22,12,49,13.10
2013,04,22,12,50,13.20
2013,04,22,12,51,13.20
2013,04,22,12,52,13.10
2013,04,22,12,53,13.10
2013,04,22,12,54,13.00
2013,04,22,12,55,13.10
2013,04,22,12,56,13.10
2013,04,22,12,57,13.00
2013,04,22,12,58,13.00
2013,04,22,12,59,13.00
2013,04,22,13,00,13.00
2013,04,22,13,01,12.90
2013,04,22,13,02,12.90
2013,04,22,13,03,12.80
2013,04,22,13,04,12.90
2013,04,22,13,05,13.10
2013,04,22,13,06,13.20
2013,04,22,13,07,13.20
2013,04,22,13,08,13.20
2013,04,22,13,09,13.20
2013,04,22,13,10,13.20
2013,04,22,13,11,13.20
2013,04,22,13,12,13.20
2013,04,22,13,13,13.20
2013,04,22,13,14,13.20
2013,04,22,13,15,13.30
2013,04,22,13,16,13.30
2013,04,22,13,17,13.40
2013,04,22,13,18,13.40
2013,04,22,13,19,13.20
2013,04,22,13,20,13.10
2013,04,22,13,21,13.10
2013,04,22,13,22,13.10
2013,04,22,13,23,13.10
2013,04,22,13,24,13.10
2013,04,22,13,25,13.10
2013,04,22,13,26,13.10
2013,04,22,13,27,13.20
2013,04,22,13,28,13.20
2013,04,22,13,29,13.20
2013,04,22,13,30,13.20
2013,04,22,13,31,13.10
2013,04,22,13,32,13.20
2013,04,22,13,33,13.20
2013,04,22,13,34,13.10
2013,04,22,13,35,13.10
2013,04,22,13,36,13.00
2013,04,22,13,37,13.00
2013,04,22,13,38,13.00
2013,04,22,13,39,13.10
2013,04,22,13,40,13.20
2013,04,22,13,41,13.30
2013,04,22,13,42,13.30
2013,04,22,13,43,13.30
2013,04,22,13,44,13.40
2013,04,22,13,45,13.40
2013,04,22,13,46,13.50
2013,04,22,13,47,13.40
2013,04,22,13,48,13.40
2013,04,22,13,49,13.40
2013,04,22,13,50,13.40
2013,04,22,13,51,13.40
2013,04,22,13,52,13.40
2013,04,22,13,53,13.40
2013,04,22,13,54,13.50
2013,04,22,13,55,13.50
2013,04,22,13,56,13.50
2013,04,22,13,57,13.50
2013,04,22,13,58,13.50
2013,04,22,13,59,13.50
2013,04,22,14,00,13.40
2013,04,22,14,01,13.40
2013,04,22,14,02,13.40
2013,04,22,14,03,13.40
2013,04,22,14,04,13.40
2013,04,22,14,05,13.40
2013,04,22,14,06,13.30
2013,04,22,14,07,13.30
2013,04,22,14,08,13.30
2013,04,22,14,09,13.30
2013,04,22,14,10,13.30
2013,04,22,14,11,13.30
2013,04,22,14,12,13.40
2013,04,22,14,13,13.40
2013,04,22,14,14,13.40
2013,04,22,14,15,13.50
2013,04,22,14,16,13.50
2013,04,22,14,17,13.50
2013,04,22,14,18,13.60
2013,04,22,14,19,13.50
2013,04,22,14,20,13.50
2013,04,22,14,21,13.40
2013,04,22,14,22,13.20
2013,04,22,14,23,13.00
2013,04,22,14,24,12.90
2013,04,22,14,25,12.70
2013,04,22,14,26,12.60
2013,04,22,14,27,12.60
2013,04,22,14,28,12.60
2013,04,22,14,29,12.80
2013,04,22,14,30,13.00
2013,04,22,14,31,13.20
2013,04,22,14,32,13.30
2013,04,22,14,33,13.40
2013,04,22,14,34,13.50
2013,04,22,14,35,13.60
2013,04,22,14,36,13.60
2013,04,22,14,37,13.70
2013,04,22,14,38,13.60
2013,04,22,14,39,13.40
2013,04,22,14,40,13.20
2013,04,22,14,41,12.90
2013,04,22,14,42,12.70
2013,04,22,14,43,12.60
2013,04,22,14,44,12.60
2013,04,22,14,45,12.50
2013,04,22,14,46,12.40
2013,04,22,14,47,12.30
2013,04,22,14,48,12.30
2013,04,22,14,49,12.30
2013,04,22,14,50,12.30
2013,04,22,14,51,12.30
2013,04,22,14,52,12.30
2013,04,22,14,53,12.30
2013,04,22,14,54,12.40
2013,04,22,14,55,12.40
2013,04,22,14,56,12.40
2013,04,22,14,57,12.40
2013,04,22,14,58,12.40
2013,04,22,14,59,12.40
2013,04,22,15,00,12.40
2013,04,22,15,01,12.40
2013,04,22,15,02,12.40
2013,04,22,15,03,12.40
2013,04,22,15,04,12.30
2013,04,22,15,05,12.20
2013,04,22,15,06,12.10
2013,04,22,15,07,12.20
2013,04,22,15,08,12.20
2013,04,22,15,09,12.10
2013,04,22,15,10,11.90
2013,04,22,15,11,11.80
2013,04,22,15,12,11.70
2013,04,22,15,13,11.60
2013,04,22,15,14,11.60
2013,04,22,15,15,11.70
2013,04,22,15,16,11.80
2013,04,22,15,17,11.90
2013,04,22,15,18,11.90
2013,04,22,15,19,11.80
2013,04,22,15,20,11.70
2013,04,22,15,21,11.70
2013,04,22,15,22,11.70
2013,04,22,15,23,11.60
2013,04,22,15,24,11.60
2013,04,22,15,25,11.60
2013,04,22,15,26,11.70
2013,04,22,15,27,11.70
2013,04,22,15,28,11.70
2013,04,22,15,29,11.70
2013,04,22,15,30,11.70
2013,04,22,15,31,11.60
2013,04,22,15,32,11.60
2013,04,22,15,33,11.60
2013,04,22,15,34,11.50
2013,04,22,15,35,11.40
2013,04,22,15,36,11.40
2013,04,22,15,37,11.40
2013,04,22,15,38,11.40
2013,04,22,15,39,11.40
2013,04,22,15,40,11.40
2013,04,22,15,41,11.40
2013,04,22,15,42,11.40
2013,04,22,15,43,11.40
2013,04,22,15,44,11.50
2013,04,22,15,45,11.60
2013,04,22,15,46,11.80
2013,04,22,15,47,11.80
2013,04,22,15,48,11.90
2013,04,22,15,49,11.90
2013,04,22,15,50,11.80
2013,04,22,15,51,11.70
2013,04,22,15,52,11.50
2013,04,22,15,53,11.40
2013,04,22,15,54,11.40
2013,04,22,15,55,11.40
2013,04,22,15,56,11.40
2013,04,22,15,57,11.30
2013,04,22,15,58,11.30
2013,04,22,15,59,11.30
2013,04,22,16,00,11.30
2013,04,22,16,01,11.30
2013,04,22,16,02,11.30
2013,04,22,16,03,11.40
2013,04,22,16,04,11.40
2013,04,22,16,05,11.40
2013,04,22,16,06,11.40
2013,04,22,16,07,11.40
2013,04,22,16,08,11.40
2013,04,22,16,09,11.40
2013,04,22,16,10,11.40
2013,04,22,16,11,11.40
2013,04,22,16,12,11.30
2013,04,22,16,13,11.30
2013,04,22,16,14,11.30
2013,04,22,16,15,11.30
2013,04,22,16,16,11.30
2013,04,22,16,17,11.30
2013,04,22,16,18,11.30
2013,04,22,16,19,11.30
2013,04,22,16,20,11.40
2013,04,22,16,21,11.50
2013,04,22,16,22,11.60
2013,04,22,16,23,11.60
2013,04,22,16,24,11.70
2013,04,22,16,25,11.80
2013,04,22,16,26,11.80
2013,04,22,16,27,11.90
2013,04,22,16,28,12.00
2013,04,22,16,29,12.00
2013,04,22,16,30,11.90
2013,04,22,16,31,11.90
2013,04,22,16,32,12.00
2013,04,22,16,33,12.00
2013,04,22,16,34,12.00
2013,04,22,16,35,11.90
2013,04,22,16,36,11.90
2013,04,22,16,37,11.80
2013,04,22,16,38,11.80
2013,04,22,16,39,11.80
2013,04,22,16,40,11.80
2013,04,22,16,41,11.70
2013,04,22,16,42,11.80
2013,04,22,16,43,11.80
2013,04,22,16,44,11.70
2013,04,22,16,45,11.60
2013,04,22,16,46,11.60
2013,04,22,16,47,11.60
2013,04,22,16,48,11.60
2013,04,22,16,49,11.60
2013,04,22,16,50,11.60
2013,04,22,16,51,11.60
2013,04,22,16,52,11.60
2013,04,22,16,53,11.60
2013,04,22,16,54,11.60
2013,04,22,16,55,11.60
2013,04,22,16,56,11.40
2013,04,22,16,57,11.40
2013,04,22,16,58,11.40
2013,04,22,16,59,11.40
2013,04,22,17,00,11.40
2013,04,22,17,01,11.40
2013,04,22,17,02,11.40
2013,04,22,17,03,11.40
2013,04,22,17,04,11.40
2013,04,22,17,05,11.50
2013,04,22,17,06,11.60
2013,04,22,17,07,11.60
2013,04,22,17,08,11.70
2013,04,22,17,09,11.70
2013,04,22,17,10,11.80
2013,04,22,17,11,11.80
2013,04,22,17,12,11.80
2013,04,22,17,13,11.80
2013,04,22,17,14,11.80
2013,04,22,17,15,11.80
2013,04,22,17,16,11.80
2013,04,22,17,17,11.80
2013,04,22,17,18,11.80
2013,04,22,17,19,11.80
2013,04,22,17,20,11.80
2013,04,22,17,21,11.80
2013,04,22,17,22,11.90
2013,04,22,17,23,12.00
2013,04,22,17,24,12.00
2013,04,22,17,25,12.00
2013,04,22,17,26,11.90
2013,04,22,17,27,11.90
2013,04,22,17,28,12.00
2013,04,22,17,29,12.00
2013,04,22,17,30,12.00
2013,04,22,17,31,11.90
2013,04,22,17,32,11.90
2013,04,22,17,33,11.80
2013,04,22,17,34,11.80
2013,04,22,17,35,11.70
2013,04,22,17,36,11.70
2013,04,22,17,37,11.70
2013,04,22,17,38,11.70
2013,04,22,17,39,11.60
2013,04,22,17,40,11.60
2013,04,22,17,41,11.60
2013,04,22,17,42,11.60
2013,04,22,17,43,11.60
2013,04,22,17,44,11.60
2013,04,22,17,45,11.60
2013,04,22,17,46,11.60
2013,04,22,17,47,11.60
2013,04,22,17,48,11.60
2013,04,22,17,49,11.60
2013,04,22,17,50,11.60
2013,04,22,17,51,11.60
2013,04,22,17,52,11.60
2013,04,22,17,53,11.60
2013,04,22,17,54,11.60
2013,04,22,17,55,11.60
2013,04,22,17,56,11.60
2013,04,22,17,57,11.60
2013,04,22,17,58,11.70
2013,04,22,17,59,11.70
2013,04,22,18,00,11.80
2013,04,22,18,01,11.80
2013,04,22,18,02,11.80
2013,04,22,18,03,11.80
2013,04,22,18,04,11.80
2013,04,22,18,05,11.80
2013,04,22,18,06,11.80
2013,04,22,18,07,11.80
2013,04,22,18,08,11.90
2013,04,22,18,09,11.90
2013,04,22,18,10,11.90
2013,04,22,18,11,11.90
2013,04,22,18,12,12.00
2013,04,22,18,13,12.00
2013,04,22,18,14,12.00
2013,04,22,18,15,12.00
2013,04,22,18,16,12.00
2013,04,22,18,17,12.00
2013,04,22,18,18,12.00
2013,04,22,18,19,12.00
2013,04,22,18,20,12.00
2013,04,22,18,21,12.00
2013,04,22,18,22,12.00
2013,04,22,18,23,12.00
2013,04,22,18,24,12.00
2013,04,22,18,25,12.10
2013,04,22,18,26,12.10
2013,04,22,18,27,12.10
2013,04,22,18,28,12.10
2013,04,22,18,29,12.20
2013,04,22,18,30,12.20
2013,04,22,18,31,12.20
2013,04,22,18,32,12.20
2013,04,22,18,33,12.30
2013,04,22,18,34,12.20
2013,04,22,18,35,12.20
2013,04,22,18,36,12.20
2013,04,22,18,37,12.20
2013,04,22,18,38,12.20
2013,04,22,18,39,12.10
2013,04,22,18,40,12.10
2013,04,22,18,41,12.00
2013,04,22,18,42,12.00
2013,04,22,18,43,12.00
2013,04,22,18,44,12.00
2013,04,22,18,45,12.00
2013,04,22,18,46,12.00
2013,04,22,18,47,12.00
2013,04,22,18,48,11.90
2013,04,22,18,49,11.90
2013,04,22,18,50,11.80
2013,04,22,18,51,11.80
2013,04,22,18,52,11.80
2013,04,22,18,53,11.80
2013,04,22,18,54,11.80
2013,04,22,18,55,11.80
2013,04,22,18,56,11.80
2013,04,22,18,57,11.80
2013,04,22,18,58,11.70
2013,04,22,18,59,11.70
2013,04,22,19,00,11.70
2013,04,22,19,01,11.80
2013,04,22,19,02,11.80
2013,04,22,19,03,11.80
2013,04,22,19,04,11.80
2013,04,22,19,05,11.90
2013,04,22,19,06,11.90
2013,04,22,19,07,11.90
2013,04,22,19,08,11.90
2013,04,22,19,09,12.00
2013,04,22,19,10,12.10
2013,04,22,19,11,12.10
2013,04,22,19,12,12.20
2013,04,22,19,13,12.20
2013,04,22,19,14,12.30
2013,04,22,19,15,12.30
2013,04,22,19,16,12.30
2013,04,22,19,17,12.30
2013,04,22,19,18,12.40
2013,04,22,19,19,12.40
2013,04,22,19,20,12.50
2013,04,22,19,21,12.50
2013,04,22,19,22,12.50
2013,04,22,19,23,12.50
2013,04,22,19,24,12.50
2013,04,22,19,25,12.50
2013,04,22,19,26,12.50
2013,04,22,19,27,12.50
2013,04,22,19,28,12.50
2013,04,22,19,29,12.50
2013,04,22,19,30,12.40
2013,04,22,19,31,12.40
2013,04,22,19,32,12.40
2013,04,22,19,33,12.40
2013,04,22,19,34,12.30
2013,04,22,19,35,12.30
2013,04,22,19,36,12.30
2013,04,22,19,37,12.30
2013,04,22,19,38,12.30
2013,04,22,19,39,12.20
2013,04,22,19,40,12.20
2013,04,22,19,41,12.20
2013,04,22,19,42,12.10
2013,04,22,19,43,12.10
2013,04,22,19,44,12.10
2013,04,22,19,45,12.10
2013,04,22,19,46,12.10
2013,04,22,19,47,12.00
2013,04,22,19,48,12.00
2013,04,22,19,49,12.00
2013,04,22,19,50,11.90
2013,04,22,19,51,11.90
2013,04,22,19,52,11.80
2013,04,22,19,53,11.80
2013,04,22,19,54,11.80
2013,04,22,19,55,11.70
2013,04,22,19,56,11.70
2013,04,22,19,57,11.60
2013,04,22,19,58,11.60
2013,04,22,19,59,11.60
2013,04,22,20,00,11.50
2013,04,22,20,01,11.40
2013,04,22,20,02,11.40
2013,04,22,20,03,11.40
2013,04,22,20,04,11.40
2013,04,22,20,05,11.40
2013,04,22,20,06,11.40
2013,04,22,20,07,11.40
2013,04,22,20,08,11.40
2013,04,22,20,09,11.40
2013,04,22,20,10,11.40
2013,04,22,20,11,11.40
